Preview of NWS' New Version of Forecast
This preview is not operational and should not be used for support decisions.

Regional Weather Roundup (RWR)

Issued by National Weather Service (NWS)

                            
000
ASCA42 TJSJ 182310
RWRPR 
PUERTO RICO/U.S. VIRGIN ISLANDS HOURLY WEATHER ROUNDUP
NATIONAL WEATHER SERVICE SAN JUAN PR
700 PM AST TUE JUN 18 2019

PRZ001>002-007>008-010-190000-
PUERTO RICO
  
CITY           SKY/WX    TMP DP  RH WIND       PRES   REMARKS
SAN JUAN LMM   PTCLDY    82  75  78 E17       30.07R                  
AGUADILLA      CLOUDY    81  75  83 E17G23    30.07S                  
CEIBA          CLOUDY    84  75  74 NE13G20   30.08R HX  92           
$$

VIZ001>002-190000-
U.S. VIRGIN ISLANDS
  
CITY           SKY/WX    TMP DP  RH WIND       PRES   REMARKS
CHARLOTTE AMA  CLEAR     82  73  74 E13       30.06S                  
CHRISTIANSTED  PTCLDY    81  73  78 NE12      30.07R                  
$$

HOURLY WEATHER ROUNDUP FOR THE NEWS MEDIA
  
CITY           SKY/WX    TMP DP  RH WIND       PRES   REMARKS
ORLANDO        LGT RAIN  80  74  81 S6        30.00S                  
NEW YORK       HVY RAIN  69  69 100 E6        29.86R FOG              
NEWARK         RAIN      71  70  96 CALM      29.85R FOG              
CHICAGO        PTSUNNY   77  56  48 SE6       29.85F                  
HARTFORD       CLOUDY    65  63  93 SE6       29.89F                  
BOSTON         CLOUDY    63  60  90 E6        29.91S FOG              
DALLAS         MOSUNNY   93  64  38 VRB5      29.83F HX  94           
PHILADELPHIA   PTSUNNY   79  69  71 W15G23    29.83R                  
LOS ANGELES    PTSUNNY   69  58  67 W14       29.96F                  
WASHINGTON DC  PTSUNNY   73  70  90 SE8       29.90R THUNDER